Location: Huntsville
(34.7300°N, 86.5860°W)
Time: 11:06:12
(UTC-05:00)

OTV 5 (USA 277) - Visible Passes

Search period start: 22 March 2019 00:00
Search period end: 01 April 2019 00:00
Orbit: 315 x 320 km, 54.5° (Epoch: 14 March)

Date Brightness Start Highest point End Pass type
(mag) Time Alt. Az. Time Alt. Az. Time Alt. Az.
29 Mar ? 05:42:49 10° S 05:44:51 20° SE 05:46:56 10° ENE visible
30 Mar ? 05:56:45 10° SW 05:59:26 75° SE 06:02:07 10° NE visible
31 Mar ? 04:40:17 11° ESE 04:40:17 11° ESE 04:40:59 10° ESE visible
